Regional Weather Roundup
Issued by NWS

Home | Current Version | Previous Version | Graphics & Text | Print | Product List | Glossary On
Versions: 1 2 3 4 5 6 7 8 9 10 11 12 13 14 15 16 17 18 19 20 21 22 23 24 25 26 27 28 29 30 31 32 33 34 35 36 37 38 39 40 41 42 43 44 45 46 47 48 49 50
000
ASUS43 KLOT 171208
RWRIL

ILLINOIS REGIONAL WEATHER ROUNDUP
NATIONAL WEATHER SERVICE CHICAGO/ROMEOVILLE IL
600 AM CST FRI NOV 17 2017

NOTE: "FAIR" INDICATES FEW OR NO CLOUDS BELOW 12,000 FEET WITH NO
SIGNIFICANT WEATHER AND/OR OBSTRUCTIONS TO VISIBILITY.

* THESE STATIONS ARE NOT UNDER NWS QUALITY CONTROL. THEY ALSO MAY NOT
  REPORT WEATHER SUCH AS PRECIPITATION OR FOG.

ILZ001-002-007-009-015-016-024-171300-
NORTHWEST ILLINOIS

CITY           SKY/WX    TMP DP  RH WIND       PRES   REMARKS
MOLINE         CLOUDY    35  29  78 SE9       30.02F WCI  28
6HR MIN TEMP:  32; 6HR MAX TEMP:  35;

STERLING*        N/A    N/A N/A N/A MISG        N/A
SAVANNA*       CLOUDY    33  30  88 SE10      30.05F WCI  25
$$

ILZ003-004-008-010-011-017-018-171300-
NORTH CENTRAL ILLINOIS

CITY           SKY/WX    TMP DP  RH WIND       PRES   REMARKS
ROCKFORD       CLOUDY    33  28  81 S9        30.12S WCI  25
6HR MIN TEMP:  32; 6HR MAX TEMP:  34;

FREEPORT*      CLOUDY    31  29  92 SE7       30.08F WCI  24
ROCHELLE*      PTCLDY    31  29  92 S12G17    30.10R WCI  22
DE KALB*       CLOUDY    32  30  91 SE14      30.09F WCI  22
PERU*          CLOUDY    31  28  89 SE13      30.10S WCI  21
$$

ILZ005-006-012>014-019>023-171300-
NORTHEAST ILLINOIS

CITY           SKY/WX    TMP DP  RH WIND       PRES   REMARKS
CHICAGO-OHARE  CLOUDY    35  29  78 S10       30.13F WCI  27
6HR MIN TEMP:  35; 6HR MAX TEMP:  38;

CHICAGO-MIDWAY CLOUDY    36  31  82 S10       30.15F WCI  28
6HR MIN TEMP:  36; 6HR MAX TEMP:  38;

AURORA         CLOUDY    33  29  85 SE12      30.12F WCI  24
6HR MIN TEMP:  33; 6HR MAX TEMP:  35;

LANSING*       CLOUDY    35  32  90 S9        30.17S WCI  27
JOLIET*        CLOUDY    35  31  88 SE7       30.15F WCI  29
WAUKEGAN       CLOUDY    35  30  82 S10       30.13S WCI  27
6HR MIN TEMP:  35; 6HR MAX TEMP:  37;

DUPAGE AIRPORT CLOUDY    33  30  88 S12       30.12F WCI  24
6HR MIN TEMP:  33; 6HR MAX TEMP:  36;

KANKAKEE*      PTCLDY    32  29  88 SE12      30.16F WCI  23
WHEELING       CLOUDY    37  31  78 S8        30.15F WCI  31
6HR MIN TEMP:  37; 6HR MAX TEMP:  38;

MORRIS*        PTCLDY    33  29  87 SE12      30.13F WCI  24
ROMEOVILLE*    CLOUDY    33  30  90 S14       30.13F WCI  23
NORTHERLY ISL    N/A     36  30  79 S8          N/A  WCI  30
$$

LMZ740>746-171300-
SOUTHERN LAKE MICHIGAN

STATION/POSITION SKY/WX   TEMP    WIND        PRES    VSBY  WAVE
                          AIR SEA DIR/SP/G                  HT/PER
                          (F)     (DEG/KT/KT) (MB)    (MI)  (FT/S)
SOUTHERN BUOY              41 50  170/ 17/ 21 1021.6          2/ 7
HARRISON CRIB              38     180/ 23/ 24   N/A
BURNHAM HARBOR             36     150/  8/ 12   N/A
CALUMET HARBOR             36     160/  9/ 12 1020.6R
BURNS HARBOR               36     170/  8/ 14 1022.0S
MICHIGAN CITY              35     140/  9/ 12   N/A
$$

ILZ025>027-034>036-040-047-049-050-058-095>099-171300-
WEST-CENTRAL ILLINOIS

CITY           SKY/WX    TMP DP  RH WIND       PRES   REMARKS
QUINCY         CLOUDY    37  32  82 SE14G23   29.97F WCI  28
GALESBURG*     CLOUDY    34  32  92 SE10G17   30.02F WCI  26
MACOMB*        CLOUDY    32  32  99 SE15      30.04F WCI  22
JACKSONVILLE*  CLOUDY    32  31  95 SE13      30.06S FOG     WCI  23
PITTSFIELD*    CLOUDY    34  32  92 SE14      30.03F FOG     WCI  25
$$

ILZ028>032-037-038-041>044-048-051>054-059>061-171300-
CENTRAL ILLINOIS

CITY           SKY/WX    TMP DP  RH WIND       PRES   REMARKS
PONTIAC        CLOUDY    32  31  98 SE15      30.12F WCI  21
BLOOMINGTON    CLOUDY    30  28  92 SE18      30.10F WCI  18
DECATUR        PTCLDY    31  28  89 SE9       30.13F WCI  23
PEORIA         CLOUDY    33  30  88 SE10      30.07F WCI  25
6HR MIN TEMP:  31; 6HR MAX TEMP:  33;

LACON*         CLOUDY    31  30  95 S7        30.08F WCI  24
LINCOLN*       CLOUDY    32  31  97 SE12      30.10F WCI  23
SPRINGFIELD    CLOUDY    34  32  92 SE15      30.07F WCI  24
6HR MIN TEMP:  30; 6HR MAX TEMP:  34;

TAYLORVILLE    CLOUDY    32  30  94 SE13      30.10F FOG     WCI  22
6HR MIN TEMP:  30; 6HR MAX TEMP:  32;

$$

ILZ033-039-045-046-055>057-062-063-171300-
EAST-CENTRAL ILLINOIS

CITY           SKY/WX    TMP DP  RH WIND       PRES   REMARKS
CHAMPAIGN      CLEAR     30  27  88 SE10      30.15F WCI  21
DANVILLE*      CLOUDY    29  28  94 SE7       30.15F WCI  22
RANTOUL*       CLEAR     32  30  94 SE8       30.15F FOG     WCI  24
MATTOON        CLEAR     31  29  92 SE10      30.15F WCI  22
PARIS*         PTCLDY    29  28  96 E7        30.19F WCI  22
$$

ILZ079-100>102-171300-
SOUTHWEST ILLINOIS

CITY           SKY/WX    TMP DP  RH WIND       PRES   REMARKS
ALTON          CLOUDY    32  32 100 SE9       30.09F FOG     WCI  24
BELLEVILLE     FOG       33  32  95 SE7       30.11F VSB 5/8 WCI  27
CAHOKIA*       CLOUDY    33  32  96 SE10      30.10F FOG     WCI  25
SPARTA*        CLOUDY    33  33 100 SE9       30.13F FOG     WCI  25
$$

ILZ064>066-069>071-074>076-080>082-084>086-088>090-092>094-171300-
SOUTH-CENTRAL ILLINOIS

CITY           SKY/WX    TMP DP  RH WIND       PRES   REMARKS
CARBONDALE     CLEAR     28  28 100 CALM      30.14F FOG
6HR MIN TEMP:  28; 6HR MAX TEMP:  33;

CAIRO*         CLEAR     31  31  99 E5        30.14F FOG     WCI  27
EFFINGHAM*     CLEAR     31  31 100 E8        30.18S FOG     WCI  23
MARION         CLEAR     32  32  99 SE5       30.15F FOG     WCI  27
MT. VERNON     CLEAR     28  28 100 E5        30.15F FOG     WCI  23
CENTRALIA*     CLEAR     32  31  99 SE7       30.13F FOG     WCI  25
SALEM*         PTCLDY    31  30  93 SE5       30.14F FOG     WCI  27
METROPOLIS*    CLEAR     31  30  97 E5        30.17S FOG     WCI  26
$$

ILZ067-068-072-073-078-083-087-091-171300-
SOUTHEAST ILLINOIS

CITY           SKY/WX    TMP DP  RH WIND       PRES   REMARKS
LAWRENCEVILLE  CLOUDY    32  29  88 SE13      30.20S FOG     WCI  22
FLORA*         CLEAR     30  29  95 E6        30.17F FOG     WCI  24
FAIRFIELD*     CLEAR     28  28 100 CALM      30.17R FOG
HARRISBURG*    CLEAR     31  31 100 E6        30.17F FOG     WCI  25
ROBINSON*      PTCLDY    29  28  97 E7        30.20S WCI  22
CARMI*         MOCLDY    29  29  99 SE7       30.18S FOG     WCI  22
$$

ABBREVIATIONS USED IN REMARKS
   TC - TEMPERATURE IN CELSIUS
  WCI - WIND CHILL INDEX
   HX - HEAT INDEX
  VSB - VISIBILITY
$$





USA.gov is the U.S. government's official web portal to all federal, state and local government web resources and services.